This is the latest recevied weather packets stored in our database for station/object N7MLR. If no packets are shown the sender has not sent any weather packets the latest 10 day(s).
| Time | Temp. | Humidity | Pressure | Rain* | Wind** | Luminosity | Snow |
|---|---|---|---|---|---|---|---|
| 1777589999 | 23.33° C | 73% | 1009.6 hPa | 0 mm | - | 98 W/m² | - |
| 1777589694 | 23.33° C | 72% | 1009.8 hPa | 0 mm | - | 103 W/m² | - |
| 1777589393 | 23.89° C | 72% | 1009.9 hPa | 0 mm | - | 101 W/m² | - |
| 1777589089 | 23.89° C | 72% | 1009.8 hPa | 0 mm | - | 117 W/m² | - |
| 1777588785 | 24.44° C | 73% | 1009.8 hPa | 0 mm | - | 133 W/m² | - |
| 1777588481 | 23.89° C | 73% | 1009.6 hPa | 0 mm | - | 168 W/m² | - |
| 1777588175 | 23.89° C | 76% | 1009.6 hPa | 0 mm | - | 180 W/m² | - |
| 1777587872 | 23.33° C | 76% | 1010 hPa | 0 mm | - | 177 W/m² | - |
| 1777587567 | 23.33° C | 76% | 1010.1 hPa | 0 mm | - | 165 W/m² | - |
| 1777587263 | 23.33° C | 77% | 1010.1 hPa | 0 mm | - | 174 W/m² | - |
| 1777586958 | 23.33° C | 77% | 1010 hPa | 0 mm | - | 192 W/m² | - |
| 1777586654 | 23.33° C | 77% | 1009.7 hPa | 0 mm | - | 202 W/m² | - |
| 1777586350 | 23.89° C | 78% | 1009.9 hPa | 0 mm | - | 200 W/m² | - |
| 1777586049 | 23.89° C | 77% | 1010 hPa | 0 mm | - | 207 W/m² | - |
| 1777585748 | 24.44° C | 76% | 1009.6 hPa | 0 mm | - | 272 W/m² | - |
| 1777585442 | 24.44° C | 75% | 1009.6 hPa | 0 mm | - | 219 W/m² | - |
| 1777585137 | 25° C | 74% | 1009.5 hPa | 0 mm | - | 431 W/m² | - |
| 1777584834 | 25° C | 73% | 1009.6 hPa | 0 mm | - | 579 W/m² | - |
| 1777584532 | 23.89° C | 75% | 1009.5 hPa | 0 mm | - | 439 W/m² | - |
| 1777584228 | 24.44° C | 73% | 1009.5 hPa | 0 mm | - | 238 W/m² | - |
| 1777583927 | 23.89° C | 74% | 1009.4 hPa | 0 mm | - | 649 W/m² | - |
| 1777583624 | 23.89° C | 76% | 1009.7 hPa | 0 mm | - | 260 W/m² | - |
| 1777583322 | 23.33° C | 77% | 1009.8 hPa | 0 mm | - | 252 W/m² | - |
| 1777583017 | 23.33° C | 76% | 1009.8 hPa | 0 mm | - | 187 W/m² | - |
| 1777582715 | 23.33° C | 75% | 1010 hPa | 0 mm | - | 176 W/m² | - |
* Rain latest hour (hover to see other rain measurements)
** Current wind speed in m/s (hover to see current wind gust speed)